User: anonymous   Login
Location: Camp Creek
(33.9000°N, 111.8167°W)
Time: 12:34:21
(UTC-07:00)
Language:

Cosmos 2322 Rocket - Orbit

View from above orbital plane
View from above orbital plane
View from above satellite
View from above satellite

Ground track
Ground track

The orbit data is extracted from the following two-line orbital elements,

1 23705U 95058B   17263.94954038 -.00000129 +00000-0 -41766-4 0  9997
2 23705 071.0231 188.1189 0011456 162.5413 197.6106 14.15104048130437
Epoch (UTC): 20 September 2017 22:47:20
Eccentricity: 0.0011456
inclination: 71.0231°
perigee height: 833 km
apogee height: 850 km
right ascension of ascending node: 188.1189°
argument of perigee: 162.5413°
revolutions per day: 14.15104048
mean anomaly at epoch: 197.6106°
orbit number at epoch: 13043

The dashed part of the orbit path shows where the satellite is in the earth's shadow,  

DLR